Block Island, RI

2:34 PM EST on December 05, 2016 (GMT -0500)
Block Island State

Weather History for KBID - June, 2013

Change the Weather History Date:

Wednesday, June 12, 2013

  Actual Average Record
Temperature  
Mean Temperature 64 °F -  
Max Temperature 69 °F 69 °F 80 °F (1983)
Min Temperature 60 °F 54 °F 44 °F (1972)
Growing Degree Days 14 (Base 50)    
Moisture  
Dew Point 54 °F    
Average Humidity 69    
Maximum Humidity 82    
Minimum Humidity 56    
Precipitation  
Precipitation 0.00 in - - ()
Sea Level Pressure  
Sea Level Pressure 29.72 in    
Wind  
Wind Speed 11 mph (WNW)    
Max Wind Speed 16 mph    
Max Gust Speed 25 mph    
Visibility 10 miles    
Events      
Averages and records for this station are not official NWS values.
T = Trace of Precipitation, MM = Missing Value Source: NWS Daily Summary

Daily Weather History Graph

Daily Weather History Graph

Search for Another Location

Airport or City:

Trip Planner

Search our weather history database for the weather conditions in past years. The results will help you decide how hot, cold, wet, or windy it might be!

Date:

Astronomy

Jun. 12, 2013 Rise Set
Actual Time 5:13 AM EDT 8:19 PM EDT
Civil Twilight 4:39 AM EDT 8:53 PM EDT
Nautical Twilight 3:56 AM EDT 9:36 PM EDT
Astronomical Twilight 3:05 AM EDT 10:27 PM EDT
Moon 8:51 AM EDT (6/12) 10:51 PM EDT (6/12)
Length of Visible Light 16h 13m
Length of Day
15h 06m
Waxing Crescent, 14% of the Moon is Illuminated
Jun 12
Waxing Crescent
Jun 16
First Quarter
Jun 23
Full
Jun 30
Last Quarter
Jul 8
New

Hourly Weather History & Observations

Time (EDT) Temp. Dew Point Humidity Pressure Visibility Wind Dir Wind Speed Gust Speed Precip Events Conditions
12:15 AM 62.6 °F 57.2 °F 82% 29.64 in 10.0 mi West 10.4 mph - N/A   Mostly Cloudy
12:35 AM 62.6 °F 57.2 °F 82% 29.64 in 10.0 mi West 13.8 mph 18.4 mph N/A   Overcast
12:55 AM 62.6 °F 57.2 °F 82% 29.64 in 10.0 mi West 10.4 mph 17.3 mph N/A   Overcast
1:15 AM 62.6 °F 57.2 °F 82% 29.64 in 10.0 mi West 11.5 mph 16.1 mph N/A   Overcast
1:35 AM 62.6 °F 57.2 °F 82% 29.63 in 10.0 mi West 10.4 mph 16.1 mph N/A   Overcast
1:55 AM 62.6 °F 57.2 °F 82% 29.63 in 10.0 mi West 11.5 mph 17.3 mph N/A   Mostly Cloudy
2:15 AM 62.6 °F 57.2 °F 82% 29.63 in 10.0 mi West 13.8 mph 18.4 mph N/A   Clear
2:35 AM 62.6 °F 57.2 °F 82% 29.63 in 10.0 mi West 12.7 mph 18.4 mph N/A   Partly Cloudy
2:55 AM 60.8 °F 55.4 °F 82% 29.63 in 10.0 mi West 12.7 mph 17.3 mph N/A   Mostly Cloudy
3:15 AM 60.8 °F 55.4 °F 82% 29.63 in 10.0 mi West 9.2 mph 16.1 mph N/A   Mostly Cloudy
3:35 AM 60.8 °F 55.4 °F 82% 29.64 in 10.0 mi West 10.4 mph - N/A   Scattered Clouds
3:55 AM 60.8 °F 55.4 °F 82% 29.63 in 10.0 mi West 11.5 mph - N/A   Scattered Clouds
4:15 AM 60.8 °F 55.4 °F 82% 29.63 in 10.0 mi West 12.7 mph 18.4 mph N/A   Mostly Cloudy
4:35 AM 60.8 °F 55.4 °F 82% 29.63 in 10.0 mi WNW 10.4 mph - N/A   Scattered Clouds
4:55 AM 60.8 °F 55.4 °F 82% 29.64 in 10.0 mi West 15.0 mph 20.7 mph N/A   Partly Cloudy
5:15 AM 60.8 °F 55.4 °F 82% 29.65 in 10.0 mi West 11.5 mph 23.0 mph N/A   Clear
5:35 AM 60.8 °F 55.4 °F 82% 29.66 in 10.0 mi West 15.0 mph 25.3 mph N/A   Clear
5:55 AM 60.8 °F 55.4 °F 82% 29.66 in 10.0 mi West 13.8 mph 21.9 mph N/A   Clear
6:15 AM 62.6 °F 55.4 °F 77% 29.67 in 10.0 mi WNW 12.7 mph 19.6 mph N/A   Clear
6:35 AM 62.6 °F 55.4 °F 77% 29.68 in 10.0 mi West 11.5 mph 18.4 mph N/A   Clear
6:55 AM 62.6 °F 55.4 °F 77% 29.68 in 10.0 mi WNW 10.4 mph 17.3 mph N/A   Clear
7:15 AM 62.6 °F 53.6 °F 72% 29.68 in 10.0 mi West 13.8 mph 19.6 mph N/A   Clear
7:35 AM 62.6 °F 53.6 °F 72% 29.68 in 10.0 mi WNW 11.5 mph 19.6 mph N/A   Partly Cloudy
7:55 AM 64.4 °F 53.6 °F 68% 29.68 in 10.0 mi WNW 11.5 mph 19.6 mph N/A   Partly Cloudy
8:15 AM 64.4 °F 53.6 °F 68% 29.68 in 10.0 mi West 15.0 mph 19.6 mph N/A   Clear
8:35 AM 64.4 °F 53.6 °F 68% 29.69 in 10.0 mi West 15.0 mph 25.3 mph N/A   Scattered Clouds
8:55 AM 64.4 °F 53.6 °F 68% 29.69 in 10.0 mi West 16.1 mph 23.0 mph N/A   Mostly Cloudy
9:15 AM 66.2 °F 53.6 °F 64% 29.69 in 10.0 mi West 15.0 mph 21.9 mph N/A   Mostly Cloudy
9:35 AM 64.4 °F 53.6 °F 68% 29.69 in 10.0 mi WNW 16.1 mph 24.2 mph N/A   Overcast
9:55 AM 66.2 °F 55.4 °F 68% 29.69 in 10.0 mi WNW 12.7 mph 21.9 mph N/A   Mostly Cloudy
10:15 AM 64.4 °F 53.6 °F 68% 29.69 in 10.0 mi West 13.8 mph 20.7 mph N/A   Overcast
10:35 AM 66.2 °F 53.6 °F 64% 29.69 in 10.0 mi West 12.7 mph 20.7 mph N/A   Overcast
10:55 AM 68.0 °F 55.4 °F 64% 29.69 in 10.0 mi West 13.8 mph 20.7 mph N/A   Scattered Clouds
11:15 AM 66.2 °F 55.4 °F 68% 29.70 in 10.0 mi WNW 10.4 mph 18.4 mph N/A   Mostly Cloudy
11:35 AM 69.8 °F 55.4 °F 60% 29.70 in 10.0 mi WNW 10.4 mph 21.9 mph N/A   Mostly Cloudy
11:55 AM 69.8 °F 55.4 °F 60% 29.70 in 10.0 mi WNW 10.4 mph 19.6 mph N/A   Mostly Cloudy
12:15 PM 69.8 °F 55.4 °F 60% 29.70 in 10.0 mi WNW 15.0 mph 19.6 mph N/A   Mostly Cloudy
12:35 PM 69.8 °F 53.6 °F 56% 29.71 in 10.0 mi WNW 10.4 mph 18.4 mph N/A   Mostly Cloudy
1:35 PM 66.2 °F 55.4 °F 68% 29.71 in 10.0 mi West 11.5 mph 20.7 mph N/A   Overcast
1:55 PM 66.2 °F 53.6 °F 64% 29.72 in 10.0 mi WNW 11.5 mph 18.4 mph N/A   Overcast
2:15 PM 68.0 °F 53.6 °F 60% 29.72 in 10.0 mi NW 8.1 mph 18.4 mph N/A   Overcast
2:35 PM 68.0 °F 53.6 °F 60% 29.72 in 10.0 mi NW 13.8 mph 23.0 mph N/A   Overcast
2:55 PM 68.0 °F 55.4 °F 64% 29.73 in - NW 11.5 mph 23.0 mph N/A   Overcast
3:15 PM 69.8 °F 53.6 °F 56% 29.73 in 10.0 mi NW 12.7 mph 20.7 mph N/A   Mostly Cloudy
3:35 PM 69.8 °F 53.6 °F 56% 29.74 in 10.0 mi NW 11.5 mph 24.2 mph N/A   Mostly Cloudy
3:55 PM 68.0 °F 53.6 °F 60% 29.74 in 10.0 mi NW 9.2 mph 19.6 mph N/A   Overcast
4:15 PM 69.8 °F 53.6 °F 56% 29.73 in 10.0 mi NW 13.8 mph 20.7 mph N/A   Mostly Cloudy
4:35 PM 69.8 °F 53.6 °F 56% 29.74 in 10.0 mi NW 10.4 mph 18.4 mph N/A   Mostly Cloudy
4:55 PM 69.8 °F 53.6 °F 56% 29.74 in 10.0 mi NW 10.4 mph 19.6 mph N/A   Overcast
5:15 PM 69.8 °F 53.6 °F 56% 29.74 in 10.0 mi NW 9.2 mph 17.3 mph N/A   Mostly Cloudy
5:35 PM 68.0 °F 53.6 °F 60% 29.75 in 10.0 mi NW 11.5 mph 17.3 mph N/A   Mostly Cloudy
5:55 PM 69.8 °F 53.6 °F 56% 29.76 in 10.0 mi NW 10.4 mph 17.3 mph N/A   Partly Cloudy
6:15 PM 69.8 °F 53.6 °F 56% 29.77 in 10.0 mi NW 9.2 mph 16.1 mph N/A   Clear
6:35 PM 68.0 °F 51.8 °F 56% 29.78 in 10.0 mi NW 10.4 mph 18.4 mph N/A   Scattered Clouds
6:55 PM 66.2 °F 51.8 °F 60% 29.78 in 10.0 mi NW 8.1 mph 16.1 mph N/A   Partly Cloudy
7:15 PM 66.2 °F 51.8 °F 60% 29.78 in 10.0 mi NW 9.2 mph 18.4 mph N/A   Clear
7:35 PM 66.2 °F 51.8 °F 60% 29.80 in 10.0 mi NNW 6.9 mph - N/A   Clear
7:55 PM 66.2 °F 51.8 °F 60% 29.80 in 10.0 mi NW 9.2 mph - N/A   Partly Cloudy
8:15 PM 64.4 °F 51.8 °F 64% 29.80 in 10.0 mi NW 8.1 mph - N/A   Scattered Clouds
8:35 PM 64.4 °F 51.8 °F 64% 29.81 in 10.0 mi NW 6.9 mph - N/A   Partly Cloudy
8:55 PM 64.4 °F 51.8 °F 64% 29.82 in 10.0 mi WNW 5.8 mph - N/A   Clear
9:15 PM 64.4 °F 51.8 °F 64% 29.83 in 10.0 mi West 8.1 mph - N/A   Clear
9:35 PM 62.6 °F 51.8 °F 68% 29.83 in 10.0 mi WNW 6.9 mph - N/A   Clear
9:55 PM 62.6 °F 51.8 °F 68% 29.84 in 10.0 mi WNW 8.1 mph - N/A   Clear
10:15 PM 62.6 °F 51.8 °F 68% 29.84 in 10.0 mi WNW 6.9 mph - N/A   Clear
10:35 PM 62.6 °F 51.8 °F 68% 29.84 in 10.0 mi NW 5.8 mph - N/A   Clear
11:15 PM 62.6 °F 51.8 °F 68% 29.84 in 10.0 mi NW 6.9 mph - N/A   Clear
11:35 PM 62.6 °F 51.8 °F 68% 29.84 in 10.0 mi NW 8.1 mph - N/A   Clear
11:55 PM 62.6 °F 51.8 °F 68% 29.84 in 10.0 mi NW 6.9 mph - N/A   Clear